Terug naar catalogus

DELTA 1 DEB

ActiefPO
NORAD 21327·DEBRIS·🇺🇸 United States

Gelanceerd Jun 12, 1975 vanaf Vandenberg Space Force Base

Loading…

Volgende Passages (komende 24 uur)

TLE

VersSource: Space-Track

Epoch: Sep 14, 2026, 14:47 UTC

1 21327U 75052AV  26257.61615926 -.00000066  00000-0 -96600-4 0  9991
2 21327  99.7315 149.8403 0281127  52.0051  61.9008 12.90043248662690

Volg DELTA 1 DEB in realtime met AllMySat

Download on the App Store